一网星座-0155星 (ONEWEB-0155 )

导读 | 豆包AI

ONEWEB-0155是英国OneWeb低轨宽带卫星星座的组成卫星,于2021年3月25日发射入轨,属于OneWeb第五批次发射的36颗卫星之一。该卫星重约147.5公斤,运行在1200公里高度的近地轨道,配备Ku和Ka波段天线,采用氙等离子体推力器,设计寿命超过7年,旨在为全球提供低时延宽带互联网服务,覆盖航空、海事、偏远地区网络接入等场景。

基本信息
目录编号:
48057
目录名称:
ONEWEB-0155
国际标识:
2021-025R
轨道中心:
EARTH
卫星名称:
一网星座-0155星
卫星全名:
一网星座-0155星 (ONEWEB-0155 )
卫星状态:
在轨 (已飞行1815 天)
发射日期:
2021-03-25 UTC
国别 :
英国 (GB)
星等 :
--
轨道信息
数据来源 国际轨道数据 AOE轨道数据
星历时间 2026-03-13T13:30:02+0800
1天前
查看轨道信息
2026-03-13T13:00:00+0800
1天前
查看轨道信息
半长轴 7587.901km 7587.893km
偏心率 0.0001889 0.0001862
轨道倾角 87.903° 87.902°
近地点辐角 80.106° 91.315°
升交点赤经 339.311° 339.316°
平近点角 280.028° 170.274°
近地点 1208.33km 1208.343km
远地点 1211.198km 1211.169km
周期 109.633分钟 109.633分钟
每日圈数 13.134706 13.134727
详细信息
平衡模式:
三轴稳定
覆盖范围:
全球
运营商:
一网卫星公司
运营商所在国:
英国
制造商(研发单位):
一网卫星公司
制造商所在国:
英国
使用方式:
暂无
卫星简介
OneWeb卫星网络由648颗重约125公斤的微型卫星组成,运行在1200公里的轨道上。 每颗卫星都能够提供至少每秒8千兆位的吞吐量,以使用其高吞吐量的Ku频段有效载荷为家庭和移动平台提供互联网接入。该卫星仍在工作。
2D轨道图
3D轨道图
轨道高度分析图
轨道倾角分析图
轨道综合分析图
查看轨道综合分析图